Tracking 30995 objects as of 7-Jul-2025
HD Live streaming from Space Station
objects crossing your sky now

SL-12 R/B(2)

Track SL-12 R/B(2) now!


NORAD ID: 23111
Int'l Code: 1994-030D
Perigee: 34,632.5 km
Apogee: 35,013.2 km
Inclination: 12.8 °
Period: 1,386.8 minutes
Semi major axis: 41193 km
RCS: 2.2242 m2 (large)
Launch date: May 20, 1994
Source: Commonwealth of Independent States (former USSR) (CIS)
Launch site: TYURATAM MISSILE AND SPACE COMPLEX (TTMTR)

Note: This is a ROCKET BODY
Your satellite tracking list
SL-16 R/B
Track 1 satellite(s)




NASA's NSSDC Master Catalog

Two Line Element Set (TLE):
1 23111U 94030D   25187.70676370 -.00000045  00000-0  00000+0 0  9992
2 23111  12.8119 345.7769 0046213 182.4815  10.3300  1.03837496118073
Source of the keplerian elements: AFSPC